Weather History for Lancaster, OH

Change the Weather History Date:

Monday, December 10, 2012

  Actual Average Record
Temperature  
Mean Temperature 45 °F -  
Max Temperature 57 °F 41 °F 60 °F (1946)
Min Temperature 33 °F 22 °F -8 °F (1958)
Degree Days  
Heating Degree Days 20    
Moisture  
Dew Point 40 °F    
Average Humidity 88    
Maximum Humidity 94    
Minimum Humidity 79    
Precipitation  
Precipitation 0.25 in - - ()
Sea Level Pressure  
Sea Level Pressure 29.73 in    
Wind  
Wind Speed 10 mph (WNW)    
Max Wind Speed 21 mph    
Max Gust Speed 33 mph    
Visibility 6 miles    
Events Rain , Snow    
Averages and records for this station are not official NWS values.
T = Trace of Precipitation, MM = Missing Value Source: NWS Daily Summary

Daily Weather History Graph

Daily Weather History Graph

Search for Another Location

Airport:

Trip Planner

Search our weather history database for the weather conditions in past years. The results will help you decide how hot, cold, wet, or windy it might be!

Date:

Astronomy

Dec. 10, 2012 Rise Set
Actual Time 7:41 AM EST 5:06 PM EST
Civil Twilight 7:10 AM EST 5:36 PM EST
Nautical Twilight 6:37 AM EST 6:10 PM EST
Astronomical Twilight 6:04 AM EST 6:43 PM EST
Moon 4:23 AM EST (12/10) 2:54 PM EST (12/10)
Length of Visible Light 10h 25m
Length of Day
9h 24m
Waning Crescent, 10% of the Moon is Illuminated
Dec 10
Waning Crescent
Dec 13
New
Dec 20
First Quarter
Dec 28
Full
Jan 4
Last Quarter

Hourly Weather History & Observations

Time (EST) Temp. Windchill Dew Point Humidity Pressure Visibility Wind Dir Wind Speed Gust Speed Precip Events Conditions
12:02 AM 57.2 °F - 53.6 °F 88% 29.71 in 10.0 mi WSW 20.7 mph 33.4 mph N/A   Overcast
12:10 AM 57.2 °F - 53.6 °F 88% 29.72 in 10.0 mi West 15.0 mph 28.8 mph N/A   Overcast
12:23 AM 57.2 °F - 53.6 °F 88% 29.72 in 7.0 mi WSW 11.5 mph - 0.01 in Rain Rain
12:53 AM 55.0 °F - 53.1 °F 93% 29.73 in 10.0 mi WSW 10.4 mph - 0.02 in Rain Light Rain
1:53 AM 54.0 °F - 52.0 °F 93% 29.68 in 6.0 mi SSW 11.5 mph - 0.03 in Rain Light Rain
2:53 AM 55.0 °F - 52.0 °F 89% 29.69 in 7.0 mi SSW 11.5 mph - 0.07 in Rain Light Rain
3:31 AM 55.4 °F - 51.8 °F 88% 29.66 in 10.0 mi SW 8.1 mph - 0.01 in   Overcast
3:53 AM 55.0 °F - 52.0 °F 89% 29.68 in 9.0 mi SW 11.5 mph 18.4 mph 0.01 in Rain Light Rain
4:05 AM 55.4 °F - 51.8 °F 88% 29.67 in 10.0 mi SW 9.2 mph 18.4 mph 0.00 in Rain Light Rain
4:53 AM 55.0 °F - 52.0 °F 89% 29.66 in 10.0 mi SW 10.4 mph - 0.00 in   Overcast
5:53 AM 55.0 °F - 53.1 °F 93% 29.65 in 10.0 mi SW 6.9 mph - 0.02 in   Overcast
6:25 AM 55.4 °F - 53.6 °F 94% 29.65 in 7.0 mi WSW 6.9 mph - N/A   Overcast
6:53 AM 50.0 °F - 48.0 °F 93% 29.67 in 8.0 mi NW 11.5 mph 19.6 mph N/A   Overcast
7:01 AM 50.0 °F - 46.4 °F 87% 29.66 in 7.0 mi NW 10.4 mph - N/A   Overcast
7:08 AM 50.0 °F - 46.4 °F 87% 29.67 in 8.0 mi NW 9.2 mph - N/A   Overcast
7:16 AM 50.0 °F - 46.4 °F 87% 29.67 in 9.0 mi NW 8.1 mph - N/A   Overcast
7:53 AM 50.0 °F - 46.0 °F 86% 29.67 in 8.0 mi Calm Calm - N/A   Overcast
8:06 AM 48.2 °F - 46.4 °F 93% 29.68 in 8.0 mi Calm Calm - N/A   Overcast
8:31 AM 48.2 °F - 46.4 °F 93% 29.67 in 7.0 mi West 3.5 mph - N/A   Overcast
8:49 AM 48.2 °F - 44.6 °F 87% 29.68 in 6.0 mi NW 5.8 mph - N/A   Overcast
8:53 AM 48.9 °F - 46.0 °F 90% 29.68 in 6.0 mi NW 4.6 mph - N/A   Overcast
9:38 AM 48.2 °F - 44.6 °F 87% 29.68 in 4.0 mi NW 8.1 mph - 0.00 in   Overcast
9:53 AM 46.0 °F 40.2 °F 43.0 °F 89% 29.68 in 3.0 mi NW 12.7 mph 23.0 mph 0.00 in   Overcast
10:35 AM 44.6 °F 39.2 °F 42.8 °F 93% 29.68 in 2.5 mi NNW 10.4 mph - 0.01 in Rain Light Rain
10:45 AM 44.6 °F 39.7 °F 41.0 °F 87% 29.67 in 1.8 mi NNW 9.2 mph - 0.03 in Rain Rain
10:53 AM 44.1 °F 38.6 °F 41.0 °F 89% 29.69 in 1.8 mi NW 10.4 mph - 0.04 in Rain Light Rain
10:58 AM 42.8 °F 36.6 °F 41.0 °F 93% 29.69 in 2.5 mi NW 11.5 mph - 0.00 in Rain Light Rain
11:11 AM 42.8 °F 35.8 °F 39.2 °F 87% 29.69 in 4.0 mi NW 13.8 mph - 0.01 in Rain Light Rain
11:53 AM 42.1 °F 37.1 °F 39.9 °F 92% 29.67 in 5.0 mi NNW 8.1 mph - 0.01 in   Overcast
12:26 PM 41.0 °F 35.8 °F 37.4 °F 87% 29.69 in 5.0 mi NW 8.1 mph - 0.00 in Rain Light Rain
12:38 PM 41.0 °F 35.2 °F 37.4 °F 87% 29.69 in 3.0 mi NW 9.2 mph - 0.01 in Rain Rain
12:46 PM 41.0 °F 36.4 °F 37.4 °F 87% 29.68 in 3.0 mi NW 6.9 mph - 0.02 in Rain Light Rain
12:53 PM 41.0 °F 33.5 °F 37.0 °F 86% 29.69 in 5.0 mi NW 13.8 mph 19.6 mph 0.02 in Rain Light Rain
1:11 PM 39.2 °F 32.0 °F 35.6 °F 87% 29.69 in 7.0 mi NW 11.5 mph - 0.00 in   Overcast
1:53 PM 39.9 °F 33.4 °F 36.0 °F 86% 29.68 in 7.0 mi NW 10.4 mph - 0.00 in   Overcast
2:09 PM 39.2 °F 35.0 °F 35.6 °F 87% 29.68 in 7.0 mi NW 5.8 mph - 0.00 in   Overcast
2:45 PM 39.2 °F 35.0 °F 35.6 °F 87% 29.68 in 8.0 mi NW 5.8 mph - 0.00 in   Overcast
2:53 PM 39.9 °F 35.1 °F 35.1 °F 83% 29.69 in 8.0 mi NW 6.9 mph - 0.00 in   Overcast
3:53 PM 39.9 °F 33.4 °F 34.0 °F 79% 29.71 in 7.0 mi NW 10.4 mph - N/A   Overcast
4:53 PM 37.0 °F 30.4 °F 33.1 °F 86% 29.75 in 8.0 mi WNW 9.2 mph 19.6 mph 0.00 in Rain Light Rain
5:11 PM 37.4 °F 30.8 °F 33.8 °F 87% 29.74 in 6.0 mi NW 9.2 mph - 0.01 in Rain Light Rain
5:20 PM 35.6 °F 29.2 °F 32.0 °F 87% 29.76 in 5.0 mi WNW 8.1 mph - 0.01 in Rain Light Rain
5:37 PM 35.6 °F 31.7 °F 32.0 °F 87% 29.76 in 7.0 mi WNW 4.6 mph - 0.01 in   Overcast
5:46 PM 35.6 °F 31.7 °F 32.0 °F 87% 29.76 in 6.0 mi WNW 4.6 mph - 0.01 in   Overcast
5:53 PM 35.1 °F 30.1 °F 32.0 °F 89% 29.78 in 5.0 mi Variable 5.8 mph - 0.02 in   Overcast
6:17 PM 33.8 °F 26.4 °F 30.2 °F 87% 29.78 in 2.0 mi WNW 9.2 mph - 0.00 in Snow Light Snow
6:25 PM 33.8 °F 27.0 °F 30.2 °F 87% 29.77 in 1.0 mi NW 8.1 mph - 0.01 in Snow Light Snow
6:32 PM 33.8 °F 28.6 °F 30.2 °F 87% 29.76 in 1.0 mi NW 5.8 mph - 0.01 in Snow Light Snow
6:40 PM 33.8 °F 27.7 °F 30.2 °F 87% 29.78 in 1.8 mi West 6.9 mph - 0.01 in Snow Light Snow
6:44 PM 33.8 °F 28.6 °F 30.2 °F 87% 29.79 in 2.5 mi West 5.8 mph - 0.01 in Snow Light Snow
6:47 PM 33.8 °F 29.6 °F 30.2 °F 87% 29.79 in 3.0 mi West 4.6 mph - 0.01 in Snow Light Snow
6:53 PM 33.1 °F 27.7 °F 30.9 °F 92% 29.80 in 4.0 mi West 5.8 mph - 0.01 in Snow Light Snow
7:53 PM 33.1 °F 28.7 °F 30.0 °F 89% 29.79 in 6.0 mi West 4.6 mph - 0.00 in   Overcast
8:06 PM 33.8 °F 28.6 °F 30.2 °F 87% 29.80 in 6.0 mi West 5.8 mph - N/A   Overcast
8:53 PM 34.0 °F 28.0 °F 30.0 °F 85% 29.85 in 7.0 mi West 6.9 mph - N/A   Overcast
9:37 PM 33.8 °F 27.0 °F 30.2 °F 87% 29.85 in 7.0 mi West 8.1 mph - N/A   Overcast
9:51 PM 33.8 °F 27.7 °F 30.2 °F 87% 29.86 in 7.0 mi West 6.9 mph - N/A   Overcast
9:53 PM 34.0 °F 28.8 °F 30.0 °F 85% 29.88 in 7.0 mi West 5.8 mph - N/A   Overcast
10:50 PM 33.8 °F 27.7 °F 30.2 °F 87% 29.87 in 7.0 mi West 6.9 mph - N/A   Overcast
10:53 PM 34.0 °F 28.8 °F 30.0 °F 85% 29.89 in 7.0 mi West 5.8 mph - N/A   Overcast
11:53 PM 34.0 °F 27.2 °F 30.0 °F 85% 29.91 in 6.0 mi West 8.1 mph - N/A   Overcast